TimeCST,TemperatureF,Dew PointF,Humidity,Sea Level PressureIn,VisibilityMPH,Wind Direction,Wind SpeedMPH,Gust SpeedMPH,PrecipitationIn,Events,Conditions,WindDirDegrees,DateUTC
12:15 AM,-2.2,-5.8,85,30.02,10.0,East,3.5,-,N/A,,Clear,80,2013-02-06 06:15:00
12:35 AM,-0.4,-5.8,78,30.03,10.0,Calm,Calm,-,N/A,,Clear,0,2013-02-06 06:35:00
1:15 AM,-0.4,-5.8,78,30.03,10.0,Calm,Calm,-,N/A,,Clear,0,2013-02-06 07:15:00
1:35 AM,-4.0,-9.4,78,30.05,10.0,Calm,Calm,-,N/A,,Clear,0,2013-02-06 07:35:00
1:55 AM,-4.0,-7.6,85,30.05,10.0,Calm,Calm,-,N/A,,Clear,0,2013-02-06 07:55:00
2:15 AM,-4.0,-7.6,85,30.05,10.0,Calm,Calm,-,N/A,,Clear,0,2013-02-06 08:15:00
2:35 AM,-7.6,-11.2,84,30.05,10.0,Calm,Calm,-,N/A,,Clear,0,2013-02-06 08:35:00
2:55 AM,-5.8,-9.4,84,30.05,10.0,Calm,Calm,-,N/A,,Mostly Cloudy,0,2013-02-06 08:55:00
3:15 AM,-4.0,-9.4,78,30.05,10.0,Calm,Calm,-,N/A,,Overcast,0,2013-02-06 09:15:00
3:35 AM,-4.0,-7.6,85,30.05,10.0,Calm,Calm,-,N/A,,Overcast,0,2013-02-06 09:35:00
3:55 AM,-2.2,-5.8,85,30.05,10.0,Calm,Calm,-,N/A,,Overcast,0,2013-02-06 09:55:00
4:15 AM,-0.4,-5.8,78,30.05,10.0,Calm,Calm,-,N/A,,Overcast,0,2013-02-06 10:15:00
4:35 AM,-2.2,-5.8,85,30.05,10.0,Calm,Calm,-,N/A,,Overcast,0,2013-02-06 10:35:00
4:55 AM,-4.0,-7.6,85,30.05,10.0,Calm,Calm,-,N/A,,Mostly Cloudy,0,2013-02-06 10:55:00
5:15 AM,-4.0,-7.6,85,30.04,10.0,Calm,Calm,-,N/A,,Scattered Clouds,0,2013-02-06 11:15:00
5:35 AM,-4.0,-7.6,85,30.03,10.0,NE,3.5,-,N/A,,Clear,50,2013-02-06 11:35:00
5:55 AM,-5.8,-11.2,77,30.04,10.0,Calm,Calm,-,N/A,,Clear,0,2013-02-06 11:55:00
6:15 AM,-5.8,-9.4,84,30.05,10.0,Calm,Calm,-,N/A,,Clear,0,2013-02-06 12:15:00
6:35 AM,-4.0,-7.6,85,30.06,10.0,Calm,Calm,-,N/A,,Clear,0,2013-02-06 12:35:00
6:55 AM,-5.8,-9.4,84,30.05,10.0,Calm,Calm,-,N/A,,Clear,0,2013-02-06 12:55:00
7:35 AM,-4.0,-7.6,85,30.07,10.0,Calm,Calm,-,N/A,,Mostly Cloudy,0,2013-02-06 13:35:00
7:55 AM,-2.2,-5.8,85,30.07,7.0,Calm,Calm,-,N/A,,Overcast,0,2013-02-06 13:55:00
8:15 AM,-0.4,-4.0,85,30.07,7.0,Calm,Calm,-,N/A,,Overcast,0,2013-02-06 14:15:00
8:55 AM,3.2,-0.4,85,30.08,10.0,Calm,Calm,-,N/A,,Mostly Cloudy,0,2013-02-06 14:55:00
9:15 AM,5.0,3.2,92,30.08,10.0,SE,3.5,-,N/A,,Overcast,130,2013-02-06 15:15:00
9:35 AM,8.6,5.0,85,30.08,10.0,Calm,Calm,-,N/A,,Overcast,0,2013-02-06 15:35:00
9:55 AM,8.6,5.0,85,30.07,10.0,SE,5.8,-,N/A,,Overcast,130,2013-02-06 15:55:00
10:15 AM,10.4,6.8,85,30.07,10.0,ESE,3.5,-,N/A,,Overcast,110,2013-02-06 16:15:00
10:35 AM,10.4,8.6,92,30.07,7.0,SE,3.5,-,N/A,,Overcast,140,2013-02-06 16:35:00
10:55 AM,10.4,8.6,92,30.08,3.0,ESE,5.8,-,N/A,Snow,Light Snow,120,2013-02-06 16:55:00
11:15 AM,10.4,8.6,92,30.07,1.0,SSE,3.5,-,N/A,Snow,Light Snow,150,2013-02-06 17:15:00
11:35 AM,12.2,10.4,92,30.07,1.5,SSE,5.8,-,N/A,Snow,Light Snow,150,2013-02-06 17:35:00
11:55 AM,12.2,10.4,92,30.07,1.8,SE,4.6,-,N/A,Snow,Light Snow,140,2013-02-06 17:55:00
12:15 PM,12.2,10.4,92,30.05,0.8,SE,5.8,-,N/A,Snow,Light Snow,130,2013-02-06 18:15:00
12:35 PM,14.0,10.4,86,30.05,0.8,ESE,4.6,-,0.01,Snow,Snow,120,2013-02-06 18:35:00
12:55 PM,14.0,12.2,93,30.04,0.5,ESE,5.8,-,0.01,Snow,Light Snow,120,2013-02-06 18:55:00
1:15 PM,14.0,12.2,93,30.02,0.5,ESE,3.5,-,0.01,Snow,Snow,110,2013-02-06 19:15:00
1:35 PM,14.0,12.2,93,30.01,0.2,East,4.6,-,0.01,Snow,Snow,100,2013-02-06 19:35:00
1:55 PM,15.8,12.2,86,30.01,0.8,East,5.8,-,0.01,Snow,Light Snow,100,2013-02-06 19:55:00
2:15 PM,17.6,12.2,79,29.99,2.5,ESE,5.8,-,N/A,Snow,Light Snow,110,2013-02-06 20:15:00
2:35 PM,17.6,12.2,79,29.98,7.0,SE,10.4,-,N/A,Snow,Light Snow,130,2013-02-06 20:35:00
2:55 PM,17.6,14.0,86,29.98,5.0,ESE,9.2,-,0.01,Snow,Light Snow,120,2013-02-06 20:55:00
3:15 PM,17.6,14.0,86,29.98,5.0,East,8.1,-,N/A,Snow,Light Snow,90,2013-02-06 21:15:00
3:35 PM,17.6,14.0,86,29.97,5.0,ESE,8.1,-,N/A,Snow,Light Snow,120,2013-02-06 21:35:00
3:55 PM,19.4,14.0,80,29.96,7.0,ESE,8.1,-,N/A,,Overcast,120,2013-02-06 21:55:00
4:15 PM,19.4,15.8,86,29.97,7.0,ESE,6.9,-,N/A,,Overcast,110,2013-02-06 22:15:00
4:35 PM,19.4,15.8,86,29.97,7.0,ESE,4.6,-,N/A,,Overcast,110,2013-02-06 22:35:00
4:55 PM,19.4,15.8,86,29.96,7.0,ESE,6.9,-,N/A,,Overcast,120,2013-02-06 22:55:00
5:15 PM,21.2,17.6,86,29.96,7.0,SE,5.8,-,N/A,,Overcast,130,2013-02-06 23:15:00
5:35 PM,21.2,17.6,86,29.96,7.0,ESE,6.9,-,N/A,,Overcast,120,2013-02-06 23:35:00
5:55 PM,21.2,17.6,86,29.97,7.0,ESE,5.8,-,N/A,,Overcast,120,2013-02-06 23:55:00
6:15 PM,21.2,17.6,86,29.97,7.0,ESE,5.8,-,N/A,,Overcast,120,2013-02-07 00:15:00
6:35 PM,21.2,19.4,93,29.97,7.0,SE,6.9,-,N/A,,Overcast,130,2013-02-07 00:35:00
6:55 PM,21.2,19.4,93,29.97,7.0,SE,6.9,-,N/A,,Overcast,130,2013-02-07 00:55:00
7:15 PM,21.2,19.4,93,29.98,7.0,ESE,9.2,-,N/A,,Overcast,120,2013-02-07 01:15:00
7:35 PM,21.2,19.4,93,29.98,7.0,ESE,8.1,-,N/A,,Overcast,120,2013-02-07 01:35:00
7:55 PM,23.0,19.4,86,29.97,7.0,SE,6.9,-,N/A,,Overcast,130,2013-02-07 01:55:00
8:15 PM,23.0,19.4,86,29.98,7.0,ESE,8.1,-,N/A,,Overcast,120,2013-02-07 02:15:00
8:35 PM,23.0,19.4,86,29.98,7.0,SE,8.1,-,N/A,,Overcast,130,2013-02-07 02:35:00
8:55 PM,23.0,19.4,86,29.99,7.0,SE,6.9,-,N/A,,Overcast,130,2013-02-07 02:55:00
9:15 PM,23.0,19.4,86,29.98,7.0,ESE,8.1,-,N/A,,Overcast,120,2013-02-07 03:15:00
9:35 PM,23.0,19.4,86,29.99,7.0,ESE,9.2,-,N/A,,Overcast,120,2013-02-07 03:35:00
9:55 PM,23.0,19.4,86,29.99,7.0,ESE,5.8,-,N/A,,Overcast,120,2013-02-07 03:55:00
10:15 PM,23.0,19.4,86,29.99,7.0,ESE,6.9,-,N/A,,Overcast,120,2013-02-07 04:15:00
10:35 PM,23.0,19.4,86,29.99,7.0,ESE,8.1,-,N/A,,Overcast,120,2013-02-07 04:35:00
10:55 PM,23.0,21.2,93,29.99,7.0,East,4.6,-,N/A,,Overcast,100,2013-02-07 04:55:00
11:15 PM,23.0,21.2,93,29.99,7.0,East,5.8,-,N/A,,Overcast,90,2013-02-07 05:15:00
11:35 PM,23.0,21.2,93,29.99,7.0,East,5.8,-,N/A,,Overcast,90,2013-02-07 05:35:00
11:55 PM,23.0,21.2,93,30.00,7.0,East,4.6,-,N/A,,Overcast,90,2013-02-07 05:55:00